AUA883 LOWW-LGSA

Flight info

Callsign AUA883
Flight time 2h 1m
Altitude 37000
Route ARSIN DCT NALOX DCT OSDUK DCT DOBAR DCT PINDO DCT PIKOS DCT LUSES DCT ATV UP169 MANOK L612 RUSOS
Aircraft A320/M-SDE3FGHIRWY/LB1

Departure

Time 2026-04-21 09:55
Airport Vienna International Airport (LOWW)

Arrival

Time 2026-04-21 11:56
Airport Chania International Airport (LGSA)
Time Latitude Longitude Altitude Speed Heading
2026-04-21 09:30 48.11541 16.56792 621 ft 0 kts 206°
2026-04-21 09:50 48.11527 16.56781 623 ft 7 kts 206°
2026-04-21 09:51 48.11477 16.56766 610 ft 7 kts 163°
2026-04-21 09:51 48.11441 16.56818 616 ft 8 kts 143°
2026-04-21 09:51 48.11381 16.56817 610 ft 8 kts 177°
2026-04-21 09:51 48.11341 16.56867 612 ft 7 kts 118°
2026-04-21 09:52 48.11320 16.56933 612 ft 7 kts 115°
2026-04-21 09:52 48.11302 16.56991 619 ft 6 kts 116°
2026-04-21 09:52 48.11283 16.57050 610 ft 8 kts 116°
2026-04-21 09:52 48.11243 16.57168 611 ft 16 kts 116°
2026-04-21 09:53 48.11195 16.57317 620 ft 15 kts 116°
2026-04-21 09:53 48.11150 16.57454 617 ft 14 kts 116°
2026-04-21 09:53 48.11109 16.57580 617 ft 13 kts 116°
2026-04-21 09:53 48.11051 16.57649 617 ft 10 kts 184°
2026-04-21 09:54 48.10992 16.57610 610 ft 9 kts 206°
2026-04-21 09:54 48.10939 16.57571 610 ft 8 kts 206°
2026-04-21 09:54 48.10928 16.57495 617 ft 15 kts 292°
2026-04-21 09:54 48.11073 16.57047 619 ft 84 kts 296°
2026-04-21 09:55 48.11425 16.55972 617 ft 143 kts 296°
2026-04-21 09:55 48.11867 16.54617 1231 ft 144 kts 296°
2026-04-21 09:55 48.11948 16.53100 1889 ft 162 kts 257°
2026-04-21 09:55 48.11182 16.51656 2193 ft 196 kts 220°
2026-04-21 09:56 48.10058 16.50366 2636 ft 217 kts 223°
2026-04-21 09:56 48.08813 16.48838 3070 ft 245 kts 225°
2026-04-21 09:56 48.07268 16.47531 3809 ft 269 kts 193°
2026-04-21 09:56 48.05382 16.47602 4802 ft 276 kts 171°
2026-04-21 09:57 48.03470 16.48044 5841 ft 279 kts 171°
2026-04-21 09:57 48.01539 16.48515 6795 ft 284 kts 166°
2026-04-21 09:57 47.99646 16.49519 7612 ft 292 kts 157°
2026-04-21 09:57 47.97752 16.50657 8584 ft 294 kts 157°
2026-04-21 09:58 47.95858 16.51819 9582 ft 295 kts 156°
2026-04-21 09:58 47.93940 16.53000 10360 ft 305 kts 156°
2026-04-21 09:58 47.91905 16.54251 10669 ft 328 kts 157°
2026-04-21 09:58 47.89740 16.55572 11218 ft 341 kts 157°
2026-04-21 09:59 47.87526 16.56914 11995 ft 346 kts 158°
2026-04-21 09:59 47.85285 16.58264 12823 ft 349 kts 158°
2026-04-21 09:59 47.83022 16.59625 13648 ft 352 kts 158°
2026-04-21 09:59 47.80738 16.60998 14396 ft 356 kts 158°
2026-04-21 10:00 47.78430 16.62383 15089 ft 360 kts 158°
2026-04-21 10:00 47.76094 16.63786 15765 ft 364 kts 158°
2026-04-21 10:00 47.73732 16.65207 16431 ft 369 kts 158°
2026-04-21 10:00 47.71336 16.66648 17007 ft 377 kts 159°
2026-04-21 10:01 47.68885 16.68115 17604 ft 382 kts 159°
2026-04-21 10:01 47.66402 16.69597 18294 ft 385 kts 158°
2026-04-21 10:01 47.63919 16.71074 18996 ft 386 kts 159°
2026-04-21 10:01 47.61410 16.72562 19560 ft 390 kts 159°
2026-04-21 10:02 47.56267 16.75217 20679 ft 398 kts 171°
2026-04-21 10:02 47.53511 16.75686 21224 ft 399 kts 178°
2026-04-21 10:02 47.50734 16.75924 21848 ft 402 kts 179°
2026-04-21 10:03 47.47928 16.76176 22433 ft 406 kts 179°
2026-04-21 10:03 47.45100 16.76443 23006 ft 409 kts 178°
2026-04-21 10:03 47.42254 16.76725 23633 ft 411 kts 178°
2026-04-21 10:03 47.39392 16.77009 24085 ft 413 kts 179°
2026-04-21 10:04 47.36518 16.77291 24591 ft 415 kts 179°
2026-04-21 10:04 47.33629 16.77573 25024 ft 418 kts 179°
2026-04-21 10:04 47.30718 16.77852 25440 ft 421 kts 179°
2026-04-21 10:04 47.27789 16.78132 25872 ft 423 kts 179°
2026-04-21 10:05 47.24874 16.78408 26234 ft 427 kts 179°
2026-04-21 10:05 47.21899 16.78687 26643 ft 430 kts 179°
2026-04-21 10:05 47.18904 16.78970 27022 ft 433 kts 180°
2026-04-21 10:05 47.15888 16.79260 27408 ft 436 kts 180°
2026-04-21 10:06 47.12852 16.79553 27788 ft 439 kts 180°
2026-04-21 10:06 47.09791 16.79846 28170 ft 442 kts 180°
2026-04-21 10:06 47.06716 16.80134 28547 ft 444 kts 181°
2026-04-21 10:06 47.03622 16.80423 28912 ft 447 kts 181°
2026-04-21 10:07 47.00508 16.80711 29264 ft 450 kts 181°
2026-04-21 10:07 46.97375 16.81004 29572 ft 453 kts 182°
2026-04-21 10:07 46.94222 16.81300 29901 ft 456 kts 182°
2026-04-21 10:07 46.91049 16.81833 30208 ft 465 kts 174°
2026-04-21 10:08 46.87906 16.83120 30464 ft 475 kts 164°
2026-04-21 10:08 46.84887 16.85200 30706 ft 484 kts 154°
2026-04-21 10:08 46.82108 16.88038 30963 ft 492 kts 143°
2026-04-21 10:08 46.79502 16.91300 31204 ft 495 kts 143°
2026-04-21 10:09 46.76884 16.94573 31441 ft 497 kts 143°
2026-04-21 10:09 46.74247 16.97851 31677 ft 499 kts 143°
2026-04-21 10:09 46.71596 17.01125 31908 ft 501 kts 144°
2026-04-21 10:09 46.68927 17.04412 32159 ft 503 kts 143°
2026-04-21 10:10 46.66256 17.07696 32460 ft 503 kts 143°
2026-04-21 10:10 46.63585 17.10982 32793 ft 503 kts 143°
2026-04-21 10:10 46.60915 17.14268 33116 ft 503 kts 143°
2026-04-21 10:10 46.58245 17.17554 33450 ft 503 kts 143°
2026-04-21 10:11 46.55578 17.20834 33784 ft 502 kts 143°
2026-04-21 10:11 46.52911 17.24108 34101 ft 502 kts 143°
2026-04-21 10:11 46.50241 17.27373 34394 ft 501 kts 143°
2026-04-21 10:11 46.47573 17.30634 34682 ft 500 kts 143°
2026-04-21 10:12 46.44911 17.33885 34928 ft 501 kts 143°
2026-04-21 10:12 46.42286 17.37088 35188 ft 500 kts 143°
2026-04-21 10:12 46.39623 17.40340 35473 ft 499 kts 143°
2026-04-21 10:12 46.36972 17.43575 35761 ft 498 kts 143°
2026-04-21 10:13 46.34328 17.46794 36061 ft 496 kts 143°
2026-04-21 10:13 46.31694 17.49998 36367 ft 494 kts 143°
2026-04-21 10:13 46.29068 17.53185 36660 ft 492 kts 143°
2026-04-21 10:13 46.26449 17.56353 36936 ft 490 kts 143°
2026-04-21 10:14 46.23833 17.59507 37050 ft 489 kts 143°
2026-04-21 10:14 46.18624 17.65779 37066 ft 488 kts 143°
2026-04-21 10:15 46.13418 17.72046 37066 ft 488 kts 143°
2026-04-21 10:15 46.08203 17.78305 37063 ft 487 kts 143°
2026-04-21 10:16 46.02986 17.84539 37062 ft 487 kts 143°
2026-04-21 10:16 45.97770 17.90768 37061 ft 487 kts 143°
2026-04-21 10:17 45.92552 17.96996 37034 ft 488 kts 144°
2026-04-21 10:17 45.88207 18.02166 37039 ft 488 kts 144°
2026-04-21 10:18 45.82982 18.08362 37047 ft 487 kts 144°
2026-04-21 10:18 45.76521 18.14604 37052 ft 477 kts 161°
2026-04-21 10:19 45.70393 18.18139 37034 ft 475 kts 163°
2026-04-21 10:19 45.65246 18.21079 37043 ft 476 kts 163°
2026-04-21 10:20 45.59098 18.24602 37052 ft 477 kts 163°
2026-04-21 10:20 45.52979 18.28098 37058 ft 477 kts 163°
2026-04-21 10:21 45.46813 18.31597 37034 ft 477 kts 163°
2026-04-21 10:21 45.40635 18.35092 37047 ft 478 kts 163°
2026-04-21 10:22 45.34445 18.38582 37052 ft 479 kts 163°
2026-04-21 10:22 45.28246 18.42087 37062 ft 479 kts 163°
2026-04-21 10:23 45.22049 18.45592 37068 ft 480 kts 163°
2026-04-21 10:23 45.15845 18.49078 37074 ft 479 kts 163°
2026-04-21 10:24 45.09641 18.52539 37074 ft 479 kts 163°
2026-04-21 10:24 45.03443 18.56004 37037 ft 479 kts 163°
2026-04-21 10:25 44.97250 18.59462 37057 ft 479 kts 163°
2026-04-21 10:25 44.91055 18.62916 37072 ft 478 kts 163°
2026-04-21 10:26 44.84869 18.66351 37062 ft 478 kts 163°
2026-04-21 10:26 44.78684 18.69768 37034 ft 477 kts 163°
2026-04-21 10:27 44.72497 18.73186 37043 ft 477 kts 163°
2026-04-21 10:27 44.66317 18.76592 37040 ft 477 kts 163°
2026-04-21 10:28 44.60177 18.79965 37040 ft 477 kts 163°
2026-04-21 10:28 44.53995 18.83357 37009 ft 477 kts 163°
2026-04-21 10:29 44.47811 18.86743 37018 ft 477 kts 163°
2026-04-21 10:29 44.41626 18.90120 37023 ft 477 kts 163°
2026-04-21 10:30 44.35440 18.93491 37004 ft 477 kts 163°
2026-04-21 10:30 44.29255 18.96852 37025 ft 477 kts 163°
2026-04-21 10:31 44.23077 19.00202 37026 ft 476 kts 163°
2026-04-21 10:31 44.16900 19.03546 37030 ft 476 kts 163°
2026-04-21 10:32 44.10727 19.06885 37038 ft 475 kts 163°
2026-04-21 10:32 44.04565 19.10211 37047 ft 475 kts 164°
2026-04-21 10:33 43.98403 19.13518 37049 ft 475 kts 164°
2026-04-21 10:33 43.92244 19.16822 37027 ft 473 kts 164°
2026-04-21 10:34 43.86113 19.20103 37043 ft 472 kts 164°
2026-04-21 10:34 43.80024 19.23347 37044 ft 472 kts 164°
2026-04-21 10:35 43.73854 19.26635 37049 ft 472 kts 164°
2026-04-21 10:35 43.67773 19.29870 37044 ft 471 kts 164°
2026-04-21 10:36 43.61663 19.33112 37050 ft 470 kts 164°
2026-04-21 10:36 43.55552 19.36344 37047 ft 470 kts 164°
2026-04-21 10:37 43.49451 19.39574 37023 ft 470 kts 164°
2026-04-21 10:37 43.43350 19.42797 37028 ft 470 kts 164°
2026-04-21 10:38 43.37248 19.45995 37028 ft 469 kts 165°
2026-04-21 10:38 43.31146 19.49187 37026 ft 470 kts 164°
2026-04-21 10:39 43.25040 19.52388 37013 ft 470 kts 165°
2026-04-21 10:39 43.18922 19.55589 37017 ft 470 kts 165°
2026-04-21 10:40 43.12805 19.58779 37014 ft 471 kts 165°
2026-04-21 10:40 43.06682 19.61956 37010 ft 471 kts 165°
2026-04-21 10:41 43.00557 19.65134 37002 ft 471 kts 165°
2026-04-21 10:41 42.94433 19.68318 37005 ft 471 kts 165°
2026-04-21 10:42 42.88314 19.71489 36975 ft 471 kts 165°
2026-04-21 10:42 42.82192 19.74650 36984 ft 471 kts 165°
2026-04-21 10:43 42.76099 19.77782 36977 ft 471 kts 165°
2026-04-21 10:43 42.69961 19.80929 36990 ft 472 kts 165°
2026-04-21 10:44 42.63820 19.84074 36968 ft 472 kts 165°
2026-04-21 10:44 42.57670 19.87221 36976 ft 472 kts 165°
2026-04-21 10:45 42.51529 19.90362 36978 ft 472 kts 165°
2026-04-21 10:45 42.45391 19.93484 36959 ft 471 kts 165°
2026-04-21 10:46 42.39259 19.96602 36977 ft 471 kts 165°
2026-04-21 10:46 42.33119 19.99722 36975 ft 471 kts 165°
2026-04-21 10:47 42.26982 20.02828 36979 ft 471 kts 165°
2026-04-21 10:47 42.20833 20.05925 36977 ft 472 kts 165°
2026-04-21 10:48 42.14685 20.09024 36985 ft 472 kts 165°
2026-04-21 10:48 42.08542 20.12125 36983 ft 472 kts 165°
2026-04-21 10:49 42.02393 20.15224 36948 ft 471 kts 165°
2026-04-21 10:49 41.96247 20.18301 36960 ft 471 kts 165°
2026-04-21 10:50 41.90138 20.21343 36969 ft 471 kts 165°
2026-04-21 10:50 41.83995 20.24402 36962 ft 472 kts 165°
2026-04-21 10:51 41.77851 20.27466 36926 ft 470 kts 165°
2026-04-21 10:51 41.71700 20.30524 36955 ft 472 kts 165°
2026-04-21 10:52 41.65541 20.33574 36964 ft 472 kts 165°
2026-04-21 10:52 41.59381 20.36622 36962 ft 472 kts 165°
2026-04-21 10:53 41.53220 20.39664 36952 ft 472 kts 165°
2026-04-21 10:53 41.47055 20.42697 36966 ft 472 kts 165°
2026-04-21 10:54 41.40882 20.45726 36970 ft 472 kts 165°
2026-04-21 10:54 41.34726 20.48756 36948 ft 472 kts 165°
2026-04-21 10:55 41.28627 20.51881 36961 ft 474 kts 163°
2026-04-21 10:55 41.22503 20.55290 36970 ft 474 kts 162°
2026-04-21 10:56 41.16428 20.58704 36980 ft 474 kts 162°
2026-04-21 10:56 41.10334 20.62050 36967 ft 474 kts 163°
2026-04-21 10:57 41.04275 20.65332 37003 ft 473 kts 163°
2026-04-21 10:57 40.98176 20.68625 37005 ft 474 kts 163°
2026-04-21 10:58 40.92081 20.71923 37001 ft 473 kts 163°
2026-04-21 10:58 40.85983 20.75226 36981 ft 473 kts 163°
2026-04-21 10:59 40.79895 20.78515 36972 ft 473 kts 162°
2026-04-21 10:59 40.74135 20.82850 36971 ft 479 kts 152°
2026-04-21 11:00 40.68516 20.87584 36965 ft 480 kts 152°
2026-04-21 11:00 40.62905 20.92334 36941 ft 479 kts 152°
2026-04-21 11:01 40.57276 20.97050 36941 ft 479 kts 152°
2026-04-21 11:01 40.51644 21.01735 36936 ft 479 kts 152°
2026-04-21 11:02 40.43207 21.08767 36914 ft 479 kts 152°
2026-04-21 11:02 40.37583 21.13458 36931 ft 479 kts 152°
2026-04-21 11:03 40.31950 21.18124 36937 ft 479 kts 152°
2026-04-21 11:03 40.26317 21.22783 36936 ft 479 kts 152°
2026-04-21 11:04 40.20721 21.27416 36934 ft 479 kts 152°
2026-04-21 11:04 40.15081 21.32079 36922 ft 479 kts 152°
2026-04-21 11:05 40.09442 21.36733 36931 ft 479 kts 152°
2026-04-21 11:05 40.03797 21.41368 36933 ft 479 kts 152°
2026-04-21 11:06 39.98148 21.45996 36942 ft 480 kts 152°
2026-04-21 11:06 39.92500 21.50623 36932 ft 479 kts 152°
2026-04-21 11:07 39.86848 21.55238 36937 ft 479 kts 152°
2026-04-21 11:07 39.81206 21.59840 36942 ft 479 kts 152°
2026-04-21 11:08 39.75567 21.64443 36947 ft 478 kts 152°
2026-04-21 11:08 39.69962 21.68999 36948 ft 478 kts 152°
2026-04-21 11:09 39.64320 21.73573 36936 ft 478 kts 152°
2026-04-21 11:09 39.58676 21.78136 36954 ft 477 kts 152°
2026-04-21 11:10 39.53044 21.82690 36942 ft 477 kts 152°
2026-04-21 11:10 39.48323 21.86496 36947 ft 477 kts 152°
2026-04-21 11:11 39.42692 21.91020 36927 ft 477 kts 152°
2026-04-21 11:11 39.37060 21.95551 36926 ft 476 kts 152°
2026-04-21 11:12 39.31469 22.00038 36929 ft 476 kts 152°
2026-04-21 11:12 39.25840 22.04541 36929 ft 476 kts 152°
2026-04-21 11:13 39.20209 22.09032 36929 ft 476 kts 153°
2026-04-21 11:13 39.14579 22.13516 36907 ft 476 kts 152°
2026-04-21 11:14 39.08952 22.17984 36942 ft 475 kts 152°
2026-04-21 11:14 39.03334 22.22456 36938 ft 474 kts 152°
2026-04-21 11:15 38.97728 22.26910 36950 ft 473 kts 152°
2026-04-21 11:15 38.92124 22.31348 36925 ft 473 kts 152°
2026-04-21 11:16 38.86520 22.35763 36934 ft 473 kts 152°
2026-04-21 11:16 38.80956 22.40141 36938 ft 472 kts 152°
2026-04-21 11:17 38.75355 22.44545 36947 ft 472 kts 152°
2026-04-21 11:17 38.69761 22.48939 36933 ft 472 kts 152°
2026-04-21 11:18 38.64172 22.53329 36931 ft 471 kts 152°
2026-04-21 11:18 38.58578 22.57701 36939 ft 471 kts 153°
2026-04-21 11:19 38.52982 22.62065 36933 ft 471 kts 153°
2026-04-21 11:19 38.47397 22.66421 36938 ft 470 kts 153°
2026-04-21 11:20 38.41811 22.70760 36940 ft 470 kts 153°
2026-04-21 11:20 38.36224 22.75098 36941 ft 470 kts 153°
2026-04-21 11:21 38.30637 22.79437 36944 ft 470 kts 153°
2026-04-21 11:21 38.25038 22.83762 36945 ft 470 kts 153°
2026-04-21 11:22 38.19481 22.88049 36939 ft 470 kts 153°
2026-04-21 11:22 38.13891 22.92366 36931 ft 470 kts 153°
2026-04-21 11:23 38.08299 22.96675 36940 ft 470 kts 153°
2026-04-21 11:23 38.02702 23.00973 36941 ft 470 kts 153°
2026-04-21 11:24 37.97105 23.05257 36943 ft 470 kts 153°
2026-04-21 11:24 37.91507 23.09552 36945 ft 470 kts 153°
2026-04-21 11:25 37.85917 23.13827 36937 ft 469 kts 153°
2026-04-21 11:25 37.80327 23.18079 36945 ft 469 kts 153°
2026-04-21 11:26 37.74742 23.22323 36951 ft 468 kts 153°
2026-04-21 11:26 37.69195 23.26534 36951 ft 468 kts 153°
2026-04-21 11:27 37.63615 23.30767 36938 ft 468 kts 153°
2026-04-21 11:27 37.58037 23.35011 36943 ft 468 kts 153°
2026-04-21 11:28 37.52448 23.39247 36949 ft 468 kts 154°
2026-04-21 11:28 37.46857 23.43460 36959 ft 468 kts 154°
2026-04-21 11:29 37.41261 23.47669 36961 ft 469 kts 154°
2026-04-21 11:29 37.35664 23.51880 36943 ft 469 kts 154°
2026-04-21 11:30 37.30066 23.56087 36958 ft 469 kts 154°
2026-04-21 11:30 37.24457 23.60285 36963 ft 469 kts 154°
2026-04-21 11:31 37.18852 23.64473 36977 ft 469 kts 154°
2026-04-21 11:31 37.13249 23.68663 36979 ft 469 kts 154°
2026-04-21 11:32 37.07644 23.72845 36974 ft 469 kts 154°
2026-04-21 11:32 37.02036 23.77019 36985 ft 469 kts 154°
2026-04-21 11:33 36.96415 23.81190 36846 ft 471 kts 154°
2026-04-21 11:33 36.93599 23.83271 36548 ft 470 kts 154°
2026-04-21 11:33 36.90818 23.85328 35970 ft 470 kts 154°
2026-04-21 11:34 36.88002 23.87412 35338 ft 471 kts 154°
2026-04-21 11:34 36.85183 23.89497 34599 ft 471 kts 153°
2026-04-21 11:34 36.82359 23.91582 33869 ft 472 kts 153°
2026-04-21 11:34 36.79537 23.93666 33121 ft 470 kts 153°
2026-04-21 11:35 36.76734 23.95737 32487 ft 466 kts 153°
2026-04-21 11:35 36.73953 23.97790 31863 ft 463 kts 153°
2026-04-21 11:35 36.71152 23.99860 31252 ft 460 kts 153°
2026-04-21 11:35 36.68450 24.01856 30667 ft 457 kts 153°
2026-04-21 11:36 36.65722 24.03865 30075 ft 454 kts 153°
2026-04-21 11:36 36.63003 24.05862 29401 ft 452 kts 153°
2026-04-21 11:36 36.60304 24.07841 28736 ft 449 kts 153°
2026-04-21 11:36 36.57621 24.09811 28080 ft 446 kts 152°
2026-04-21 11:37 36.54955 24.11769 27447 ft 444 kts 152°
2026-04-21 11:37 36.52304 24.13713 26828 ft 441 kts 152°
2026-04-21 11:37 36.49668 24.15640 26222 ft 438 kts 153°
2026-04-21 11:37 36.47044 24.17552 25628 ft 436 kts 152°
2026-04-21 11:38 36.44439 24.19453 25044 ft 433 kts 152°
2026-04-21 11:38 36.41849 24.21343 24471 ft 431 kts 152°
2026-04-21 11:38 36.39276 24.23223 23913 ft 428 kts 152°
2026-04-21 11:38 36.36714 24.25096 23308 ft 426 kts 152°
2026-04-21 11:39 36.34165 24.26956 22675 ft 424 kts 152°
2026-04-21 11:39 36.31658 24.28781 22029 ft 423 kts 152°
2026-04-21 11:39 36.29122 24.30622 21400 ft 422 kts 152°
2026-04-21 11:39 36.26596 24.32455 20799 ft 420 kts 152°
2026-04-21 11:40 36.24058 24.34225 20200 ft 417 kts 158°
2026-04-21 11:40 36.21343 24.35369 19616 ft 410 kts 172°
2026-04-21 11:40 36.18540 24.35688 19032 ft 401 kts 186°
2026-04-21 11:40 36.15807 24.35224 18488 ft 394 kts 197°
2026-04-21 11:41 36.13144 24.34462 17872 ft 392 kts 197°
2026-04-21 11:41 36.10493 24.33705 17254 ft 390 kts 197°
2026-04-21 11:41 36.07886 24.32968 16978 ft 379 kts 197°
2026-04-21 11:41 36.05346 24.32265 16717 ft 368 kts 197°
2026-04-21 11:42 36.02878 24.31588 16462 ft 359 kts 197°
2026-04-21 11:42 36.00471 24.30928 16202 ft 350 kts 197°
2026-04-21 11:42 35.98107 24.30275 15798 ft 347 kts 197°
2026-04-21 11:42 35.95758 24.29619 15357 ft 345 kts 197°
2026-04-21 11:43 35.93420 24.28961 14909 ft 344 kts 197°
2026-04-21 11:43 35.91090 24.28302 14463 ft 343 kts 197°
2026-04-21 11:43 35.88767 24.27647 14049 ft 341 kts 197°
2026-04-21 11:43 35.86493 24.27010 13925 ft 329 kts 197°
2026-04-21 11:44 35.84333 24.26428 13789 ft 307 kts 194°
2026-04-21 11:44 35.82234 24.26440 13430 ft 302 kts 170°
2026-04-21 11:44 35.80325 24.27503 13166 ft 305 kts 144°
2026-04-21 11:44 35.78928 24.29441 12896 ft 304 kts 118°
2026-04-21 11:45 35.78046 24.31808 12499 ft 306 kts 114°
2026-04-21 11:45 35.77106 24.34169 12127 ft 306 kts 118°
2026-04-21 11:45 35.76028 24.36445 11662 ft 309 kts 123°
2026-04-21 11:45 35.74825 24.38559 11475 ft 303 kts 128°
2026-04-21 11:46 35.73496 24.40556 11117 ft 299 kts 132°
2026-04-21 11:46 35.72071 24.42394 10557 ft 296 kts 137°
2026-04-21 11:46 35.70550 24.44079 10011 ft 292 kts 142°
2026-04-21 11:46 35.68961 24.45600 9469 ft 287 kts 146°
2026-04-21 11:47 35.67305 24.46974 9068 ft 285 kts 151°
2026-04-21 11:47 35.65576 24.48140 8715 ft 280 kts 163°
2026-04-21 11:47 35.63695 24.48311 8304 ft 269 kts 199°
2026-04-21 11:47 35.62136 24.47232 7951 ft 253 kts 233°
2026-04-21 11:48 35.61248 24.45431 7633 ft 246 kts 249°
2026-04-21 11:48 35.60470 24.43570 7311 ft 246 kts 236°
2026-04-21 11:48 35.59213 24.42160 7004 ft 247 kts 213°
2026-04-21 11:48 35.57587 24.41467 6656 ft 252 kts 190°
2026-04-21 11:49 35.55829 24.41599 6268 ft 256 kts 173°
2026-04-21 11:49 35.54068 24.41899 5874 ft 255 kts 178°
2026-04-21 11:49 35.52328 24.42006 5493 ft 245 kts 183°
2026-04-21 11:49 35.50667 24.41929 5148 ft 233 kts 188°
2026-04-21 11:50 35.49113 24.41694 4820 ft 223 kts 193°
2026-04-21 11:50 35.47666 24.41220 4517 ft 208 kts 211°
2026-04-21 11:50 35.46594 24.40176 4288 ft 190 kts 235°
2026-04-21 11:50 35.45997 24.38792 4072 ft 181 kts 256°
2026-04-21 11:51 35.45880 24.37284 3858 ft 176 kts 277°
2026-04-21 11:51 35.46212 24.35862 3677 ft 171 kts 291°
2026-04-21 11:51 35.46661 24.34540 3463 ft 165 kts 290°
2026-04-21 11:51 35.47086 24.33258 3250 ft 159 kts 290°
2026-04-21 11:52 35.47486 24.32051 3052 ft 145 kts 290°
2026-04-21 11:52 35.47849 24.30955 2901 ft 133 kts 290°
2026-04-21 11:52 35.48193 24.29916 2743 ft 129 kts 290°
2026-04-21 11:52 35.48531 24.28901 2585 ft 129 kts 291°
2026-04-21 11:53 35.48867 24.27889 2429 ft 127 kts 291°
2026-04-21 11:53 35.49197 24.26890 2275 ft 126 kts 291°
2026-04-21 11:53 35.49526 24.25892 2093 ft 126 kts 291°
2026-04-21 11:53 35.49860 24.24893 1889 ft 126 kts 292°
2026-04-21 11:54 35.50228 24.23926 1734 ft 124 kts 294°
2026-04-21 11:54 35.50594 24.22965 1581 ft 124 kts 292°
2026-04-21 11:54 35.50920 24.21991 1447 ft 123 kts 289°
2026-04-21 11:54 35.51220 24.21026 1326 ft 123 kts 290°
2026-04-21 11:55 35.51542 24.20041 1103 ft 127 kts 288°
2026-04-21 11:55 35.51847 24.19044 918 ft 123 kts 288°
2026-04-21 11:55 35.52165 24.18067 768 ft 123 kts 290°
2026-04-21 11:55 35.52488 24.17074 587 ft 126 kts 289°
2026-04-21 11:56 35.52807 24.16106 504 ft 113 kts 289°
2026-04-21 11:56 35.53041 24.15369 486 ft 69 kts 291°
2026-04-21 11:56 35.53145 24.15094 486 ft 11 kts 336°
2026-04-21 11:56 35.53179 24.15120 485 ft 7 kts 35°
2026-04-21 11:57 35.53222 24.15144 490 ft 4 kts 22°
2026-04-21 11:57 35.53237 24.15153 490 ft 1 kts 26°
2026-04-21 11:57 35.53267 24.15176 496 ft 9 kts 39°
2026-04-21 11:57 35.53264 24.15254 491 ft 4 kts 115°
2026-04-21 11:58 35.53276 24.15257 490 ft 3 kts 315°
2026-04-21 11:58 35.53298 24.15149 497 ft 22 kts 289°
2026-04-21 11:58 35.53360 24.14951 495 ft 25 kts 290°
2026-04-21 11:58 35.53426 24.14754 493 ft 25 kts 292°
2026-04-21 11:59 35.53489 24.14562 493 ft 24 kts 292°
2026-04-21 11:59 35.53546 24.14386 496 ft 16 kts 292°
2026-04-21 11:59 35.53603 24.14343 490 ft 11 kts 15°
2026-04-21 11:59 35.53675 24.14367 498 ft 9 kts 351°
2026-04-21 12:00 35.53703 24.14294 492 ft 11 kts 289°
2026-04-21 12:00 35.53733 24.14196 496 ft 14 kts 291°
2026-04-21 12:00 35.53750 24.14142 496 ft 6 kts 294°
2026-04-21 12:00 35.53769 24.14084 493 ft 10 kts 291°
2026-04-21 12:01 35.53798 24.13995 491 ft 11 kts 293°
2026-04-21 12:01 35.53844 24.13996 494 ft 7 kts 21°
2026-04-21 12:01 35.53880 24.14013 498 ft 1 kts 21°
2026-04-21 12:01 35.53885 24.14016 496 ft 0 kts 21°